,,,PA_Meas_PMT16A,,PR_Meas_QMR101_102,,RH_Meas_QMH101,,SR_Meas_QMS101,,TA_Meas_QMH101,,GenWind,,GenWind,
date,time,status,PA,status,PR,status,RH,status,SR,status,TA,status,DirAvg,status,SpdAvg,
2008-11-13, 00:00:04,VALID,1008.98,VALID,0,VALID,93.0113,VALID,0,VALID,24.5125,VALID,141,VALID,0.503516,
2008-11-13, 00:01:04,VALID,1008.97,VALID,0,VALID,93.0342,VALID,0,VALID,24.5144,VALID,121,VALID,0.620313,
2008-11-13, 00:02:04,VALID,1008.96,VALID,0,VALID,93.0952,VALID,0,VALID,24.493,VALID,117,VALID,0.698047,
2008-11-13, 00:03:04,VALID,1008.96,VALID,0,VALID,93.0723,VALID,0,VALID,24.5125,VALID,113,VALID,0.895703,
2008-11-13, 00:04:04,VALID,1008.93,VALID,0,VALID,93.0952,VALID,0,VALID,24.493,VALID,103,VALID,0.795313,
2008-11-13, 00:05:04,VALID,1008.93,VALID,0,VALID,93.0723,VALID,0,VALID,24.493,VALID,117,VALID,0.791797,
2008-11-13, 00:06:04,VALID,1008.95,VALID,0,VALID,93.0037,VALID,0,VALID,24.4735,VALID,111,VALID,1.11055,
2008-11-13, 00:07:04,VALID,1008.96,VALID,0,VALID,93.0723,VALID,0,VALID,24.493,VALID,125,VALID,0.593359,
2008-11-13, 00:08:04,VALID,1008.93,VALID,0,VALID,93.1333,VALID,0,VALID,24.493,VALID,122,VALID,0.694922,
2008-11-13, 00:09:04,VALID,1008.95,VALID,0,VALID,93.141,VALID,0,VALID,24.493,VALID,138,VALID,0.567969,
2008-11-13, 00:10:04,VALID,1008.93,VALID,0,VALID,93.1333,VALID,0,VALID,24.454,VALID,134,VALID,0.698438,
2008-11-13, 00:11:04,VALID,1008.95,VALID,0,VALID,93.1257,VALID,0,VALID,24.454,VALID,134,VALID,0.532031,
2008-11-13, 00:12:04,VALID,1008.9,VALID,0,VALID,93.1791,VALID,0,VALID,24.4345,VALID,134,VALID,0.396484,
2008-11-13, 00:13:04,VALID,1008.89,VALID,0,VALID,93.2172,VALID,0,VALID,24.4559,VALID,134,VALID,0.357422,
2008-11-13, 00:14:04,VALID,1008.87,VALID,0,VALID,93.2706,VALID,0,VALID,24.4345,VALID,108,VALID,0.596094,
2008-11-13, 00:15:04,VALID,1008.85,VALID,0,VALID,93.3163,VALID,0,VALID,24.415,VALID,106,VALID,0.487891,
2008-11-13, 00:16:04,VALID,1008.81,VALID,0,VALID,93.3545,VALID,0,VALID,24.3956,VALID,106,VALID,0.612891,
2008-11-13, 00:17:04,VALID,1008.8,VALID,0,VALID,93.446,VALID,0,VALID,24.3956,VALID,99,VALID,0.551172,
2008-11-13, 00:18:05,VALID,1008.78,VALID,0,VALID,93.4841,VALID,0,VALID,24.3956,VALID,92,VALID,0.9875,
2008-11-13, 00:19:05,VALID,1008.72,VALID,0,VALID,93.5299,VALID,0,VALID,24.3974,VALID,102,VALID,0.747656,
2008-11-13, 00:20:05,VALID,1008.73,VALID,0,VALID,93.568,VALID,0,VALID,24.3566,VALID,91,VALID,0.679297,
2008-11-13, 00:21:05,VALID,1008.7,VALID,0,VALID,93.6214,VALID,0,VALID,24.3371,VALID,84,VALID,0.954297,
2008-11-13, 00:22:05,VALID,1008.7,VALID,0,VALID,93.6519,VALID,0,VALID,24.3371,VALID,85,VALID,0.794922,
2008-11-13, 00:23:05,VALID,1008.7,VALID,0,VALID,93.7053,VALID,0,VALID,24.3176,VALID,85,VALID,0.692187,
2008-11-13, 00:24:05,VALID,1008.71,VALID,0,VALID,93.7434,VALID,0,VALID,24.3194,VALID,86,VALID,1.01914,
2008-11-13, 00:25:05,VALID,1008.69,VALID,0,VALID,93.8196,VALID,0,VALID,24.2981,VALID,83,VALID,0.671875,
2008-11-13, 00:26:05,VALID,1008.66,VALID,0,VALID,93.8502,VALID,0,VALID,24.2591,VALID,81,VALID,1.01914,
2008-11-13, 00:27:05,VALID,1008.66,VALID,0,VALID,93.9264,VALID,0,VALID,24.2396,VALID,90,VALID,0.528125,
2008-11-13, 00:28:05,VALID,1008.63,VALID,0,VALID,93.9569,VALID,0,VALID,24.2202,VALID,94,VALID,1.08984,
2008-11-13, 00:29:05,VALID,1008.62,VALID,0,VALID,93.9722,VALID,0,VALID,24.2202,VALID,105,VALID,1.07187,
2008-11-13, 00:30:05,VALID,1008.62,VALID,0,VALID,94.0103,VALID,0,VALID,24.2202,VALID,80,VALID,0.641406,
2008-11-13, 00:31:05,VALID,1008.64,VALID,0,VALID,94.0179,VALID,0,VALID,24.1812,VALID,70,VALID,1.32344,
2008-11-13, 00:32:05,VALID,1008.58,VALID,0,VALID,94.0255,VALID,0,VALID,24.2202,VALID,69,VALID,1.07813,
2008-11-13, 00:33:05,VALID,1008.62,VALID,0,VALID,94.0255,VALID,0,VALID,24.183,VALID,65,VALID,1.02852,
2008-11-13, 00:34:05,VALID,1008.63,VALID,0,VALID,94.0332,VALID,0,VALID,24.1422,VALID,74,VALID,1.03359,
2008-11-13, 00:35:05,VALID,1008.63,VALID,0,VALID,94.0484,VALID,0,VALID,24.1227,VALID,48,VALID,1.08398,
2008-11-13, 00:36:05,VALID,1008.62,VALID,0,VALID,94.1018,VALID,0,VALID,24.1245,VALID,75,VALID,1.0375,
2008-11-13, 00:37:05,VALID,1008.63,VALID,0,VALID,94.1171,VALID,0,VALID,24.0837,VALID,75,VALID,1.18477,
2008-11-13, 00:38:05,VALID,1008.63,VALID,0,VALID,94.1399,VALID,0,VALID,24.0643,VALID,62,VALID,0.694531,
2008-11-13, 00:39:05,VALID,1008.64,VALID,0,VALID,94.1628,VALID,0,VALID,24.0643,VALID,84,VALID,0.986328,
2008-11-13, 00:40:05,VALID,1008.63,VALID,0,VALID,94.2238,VALID,0,VALID,24.0448,VALID,68,VALID,0.5875,
2008-11-13, 00:41:05,VALID,1008.61,VALID,0,VALID,94.2696,VALID,0,VALID,24.004,VALID,62,VALID,0.654688,
2008-11-13, 00:42:05,VALID,1008.61,VALID,0,VALID,94.3001,VALID,0,VALID,24.0058,VALID,88,VALID,1.11406,
2008-11-13, 00:43:05,VALID,1008.61,VALID,0,VALID,94.3382,VALID,0,VALID,24.0058,VALID,88,VALID,0.741406,
2008-11-13, 00:44:05,VALID,1008.6,VALID,0,VALID,94.3611,VALID,0,VALID,23.9863,VALID,77,VALID,0.626562,
2008-11-13, 00:45:05,VALID,1008.58,VALID,0,VALID,94.4068,VALID,0,VALID,23.9668,VALID,103,VALID,0.841016,
2008-11-13, 00:46:05,VALID,1008.58,VALID,0,VALID,94.445,VALID,0,VALID,23.9668,VALID,94,VALID,0.431641,
2008-11-13, 00:47:05,VALID,1008.59,VALID,0,VALID,94.4602,VALID,0,VALID,23.9668,VALID,93,VALID,0.569531,
2008-11-13, 00:48:05,VALID,1008.57,VALID,0,VALID,94.4755,VALID,0,VALID,23.9668,VALID,84,VALID,0.326953,
2008-11-13, 00:49:05,VALID,1008.56,VALID,0,VALID,94.4907,VALID,0,VALID,23.9863,VALID,84,VALID,0.1,
2008-11-13, 00:50:05,VALID,1008.55,VALID,0,VALID,94.4983,VALID,0,VALID,23.9473,VALID,84,VALID,0.454688,
2008-11-13, 00:51:05,VALID,1008.56,VALID,0,VALID,94.5212,VALID,0,VALID,23.9881,VALID,76,VALID,0.696875,
2008-11-13, 00:52:05,VALID,1008.56,VALID,0,VALID,94.5288,VALID,0,VALID,23.9473,VALID,68,VALID,0.760156,
2008-11-13, 00:53:05,VALID,1008.54,VALID,0,VALID,94.5212,VALID,0,VALID,23.9668,VALID,61,VALID,0.526172,
2008-11-13, 00:54:05,VALID,1008.51,VALID,0,VALID,94.5441,VALID,0,VALID,23.9863,VALID,55,VALID,0.730078,
2008-11-13, 00:55:05,VALID,1008.5,VALID,0,VALID,94.5288,VALID,0,VALID,23.9473,VALID,54,VALID,0.728906,
2008-11-13, 00:56:05,VALID,1008.5,VALID,0,VALID,94.5441,VALID,0,VALID,23.9278,VALID,64,VALID,0.859766,
2008-11-13, 00:57:05,VALID,1008.47,VALID,0,VALID,94.5517,VALID,0,VALID,23.9278,VALID,66,VALID,0.431641,
2008-11-13, 00:58:05,VALID,1008.46,VALID,0,VALID,94.5517,VALID,0,VALID,23.9278,VALID,82,VALID,0.746094,
2008-11-13, 00:59:05,VALID,1008.45,VALID,0,VALID,94.5746,VALID,0,VALID,23.8889,VALID,105,VALID,0.542969,
2008-11-13, 01:00:05,VALID,1008.43,VALID,0,VALID,94.5975,VALID,0,VALID,23.9473,VALID,106,VALID,0.566797,
2008-11-13, 01:01:05,VALID,1008.37,VALID,0,VALID,94.6203,VALID,0,VALID,23.8871,VALID,102,VALID,0.944531,
2008-11-13, 01:02:05,VALID,1008.34,VALID,0,VALID,94.628,VALID,0,VALID,23.9084,VALID,86,VALID,0.918359,
2008-11-13, 01:03:05,VALID,1008.32,VALID,0,VALID,94.6508,VALID,0,VALID,23.8889,VALID,92,VALID,0.926562,
2008-11-13, 01:04:05,VALID,1008.32,VALID,0,VALID,94.6585,VALID,0,VALID,23.9084,VALID,83,VALID,1.0043,
2008-11-13, 01:05:05,VALID,1008.32,VALID,0,VALID,94.6661,VALID,0,VALID,23.8889,VALID,76,VALID,0.955469,
2008-11-13, 01:06:05,VALID,1008.29,VALID,0,VALID,94.6814,VALID,0,VALID,23.9084,VALID,83,VALID,1.24023,
2008-11-13, 01:07:05,VALID,1008.32,VALID,0,VALID,94.7042,VALID,0,VALID,23.8889,VALID,84,VALID,0.994141,
2008-11-13, 01:08:05,VALID,1008.29,VALID,0,VALID,94.7042,VALID,0,VALID,23.8481,VALID,86,VALID,1.19531,
2008-11-13, 01:09:05,VALID,1008.33,VALID,0,VALID,94.7271,VALID,0,VALID,23.9084,VALID,81,VALID,1.30938,
2008-11-13, 01:10:05,VALID,1008.33,VALID,0,VALID,94.7271,VALID,0,VALID,23.8694,VALID,75,VALID,1.18125,
2008-11-13, 01:11:05,VALID,1008.31,VALID,0,VALID,94.75,VALID,0,VALID,23.8499,VALID,67,VALID,0.893359,
2008-11-13, 01:12:05,VALID,1008.28,VALID,0,VALID,94.75,VALID,0,VALID,23.8304,VALID,55,VALID,0.912109,
2008-11-13, 01:13:05,VALID,1008.28,VALID,0,VALID,94.7652,VALID,0,VALID,23.7896,VALID,62,VALID,0.612891,
2008-11-13, 01:14:05,VALID,1008.23,VALID,0,VALID,94.7957,VALID,0,VALID,23.7914,VALID,64,VALID,0.762109,
2008-11-13, 01:15:05,VALID,1008.22,VALID,0,VALID,94.8034,VALID,0,VALID,23.7914,VALID,69,VALID,0.417969,
2008-11-13, 01:16:05,VALID,1008.16,VALID,0,VALID,94.8339,VALID,0,VALID,23.7914,VALID,74,VALID,0.544531,
2008-11-13, 01:17:05,VALID,1008.13,VALID,0,VALID,94.8491,VALID,0,VALID,23.7914,VALID,67,VALID,0.780078,
2008-11-13, 01:18:05,VALID,1008.16,VALID,0,VALID,94.8796,VALID,0,VALID,23.7914,VALID,90,VALID,0.625781,
2008-11-13, 01:19:05,VALID,1008.1,VALID,0,VALID,94.8873,VALID,0,VALID,23.772,VALID,85,VALID,1.07461,
2008-11-13, 01:20:05,VALID,1008.13,VALID,0,VALID,94.933,VALID,0,VALID,23.7914,VALID,73,VALID,1.05703,
2008-11-13, 01:21:05,VALID,1008.13,VALID,0,VALID,94.933,VALID,0,VALID,23.772,VALID,97,VALID,0.73125,
2008-11-13, 01:22:05,VALID,1008.12,VALID,0,VALID,94.9711,VALID,0,VALID,23.7914,VALID,88,VALID,0.916406,
2008-11-13, 01:23:05,VALID,1008.1,VALID,0,VALID,94.9788,VALID,0,VALID,23.7914,VALID,72,VALID,0.814453,
2008-11-13, 01:24:05,VALID,1008.08,VALID,0,VALID,94.994,VALID,0,VALID,23.7525,VALID,73,VALID,0.844922,
2008-11-13, 01:25:05,VALID,1008.07,VALID,0,VALID,95.0016,VALID,0,VALID,23.772,VALID,57,VALID,0.834375,
2008-11-13, 01:26:05,VALID,1008.06,VALID,0,VALID,95.0169,VALID,0,VALID,23.772,VALID,47,VALID,1.0168,
2008-11-13, 01:27:05,VALID,1008.02,VALID,0,VALID,95.0398,VALID,0,VALID,23.7525,VALID,53,VALID,0.419922,
2008-11-13, 01:28:05,VALID,1008.07,VALID,0,VALID,95.055,VALID,0,VALID,23.7507,VALID,45,VALID,0.571875,
2008-11-13, 01:29:05,VALID,1008.04,VALID,0,VALID,95.055,VALID,0,VALID,23.7525,VALID,66,VALID,0.829297,
2008-11-13, 01:30:05,VALID,1008.01,VALID,0,VALID,95.0855,VALID,0,VALID,23.694,VALID,60,VALID,0.995313,
2008-11-13, 01:31:05,VALID,1007.98,VALID,0,VALID,95.0855,VALID,0,VALID,23.7135,VALID,74,VALID,0.772656,
2008-11-13, 01:32:05,VALID,1007.97,VALID,0,VALID,95.1084,VALID,0,VALID,23.733,VALID,64,VALID,0.7125,
2008-11-13, 01:33:05,VALID,1007.97,VALID,0,VALID,95.1236,VALID,0,VALID,23.7117,VALID,85,VALID,0.911719,
2008-11-13, 01:34:05,VALID,1007.93,VALID,0,VALID,95.1389,VALID,0,VALID,23.733,VALID,63,VALID,0.777734,
2008-11-13, 01:35:05,VALID,1007.93,VALID,0,VALID,95.1465,VALID,0,VALID,23.733,VALID,87,VALID,0.552344,
2008-11-13, 01:36:05,VALID,1007.92,VALID,0,VALID,95.1542,VALID,0,VALID,23.733,VALID,77,VALID,1.1082,
2008-11-13, 01:37:05,VALID,1007.93,VALID,0,VALID,95.1847,VALID,0,VALID,23.7525,VALID,94,VALID,0.892187,
2008-11-13, 01:38:05,VALID,1007.93,VALID,0,VALID,95.1847,VALID,0,VALID,23.7525,VALID,84,VALID,1.24531,
2008-11-13, 01:39:05,VALID,1007.93,VALID,0,VALID,95.1923,VALID,0,VALID,23.7543,VALID,84,VALID,0.694922,
2008-11-13, 01:40:05,VALID,1007.89,VALID,0,VALID,95.2228,VALID,0,VALID,23.7312,VALID,101,VALID,0.639453,
2008-11-13, 01:41:05,VALID,1007.89,VALID,0,VALID,95.2075,VALID,0,VALID,23.7135,VALID,97,VALID,0.703125,
2008-11-13, 01:42:05,VALID,1007.86,VALID,0,VALID,95.2457,VALID,0,VALID,23.7543,VALID,94,VALID,1.01406,
2008-11-13, 01:43:05,VALID,1007.83,VALID,0,VALID,95.2685,VALID,0,VALID,23.7135,VALID,66,VALID,1.06602,
2008-11-13, 01:44:05,VALID,1007.81,VALID,0,VALID,95.2685,VALID,0,VALID,23.6922,VALID,85,VALID,0.606641,
2008-11-13, 01:45:05,VALID,1007.81,VALID,0,VALID,95.2762,VALID,0,VALID,23.7135,VALID,93,VALID,1.06133,
2008-11-13, 01:46:05,VALID,1007.79,VALID,0,VALID,95.299,VALID,0,VALID,23.7135,VALID,104,VALID,1.2082,
2008-11-13, 01:47:05,VALID,1007.79,VALID,0,VALID,95.2762,VALID,0,VALID,23.7348,VALID,111,VALID,0.989062,
2008-11-13, 01:48:05,VALID,1007.8,VALID,0,VALID,95.3067,VALID,0,VALID,23.733,VALID,83,VALID,0.7375,
2008-11-13, 01:49:05,VALID,1007.79,VALID,0,VALID,95.3295,VALID,0,VALID,23.694,VALID,75,VALID,1.33125,
2008-11-13, 01:50:05,VALID,1007.82,VALID,0,VALID,95.3295,VALID,0,VALID,23.7135,VALID,107,VALID,0.670703,
2008-11-13, 01:51:05,VALID,1007.81,VALID,0,VALID,95.3143,VALID,0,VALID,23.694,VALID,104,VALID,1.00508,
2008-11-13, 01:52:05,VALID,1007.82,VALID,0,VALID,95.3372,VALID,0,VALID,23.694,VALID,76,VALID,1.09414,
2008-11-13, 01:53:05,VALID,1007.83,VALID,0,VALID,95.3448,VALID,0,VALID,23.733,VALID,103,VALID,1.03437,
2008-11-13, 01:54:05,VALID,1007.82,VALID,0,VALID,95.36,VALID,0,VALID,23.694,VALID,80,VALID,1.02422,
2008-11-13, 01:55:05,VALID,1007.84,VALID,0,VALID,95.36,VALID,0,VALID,23.694,VALID,101,VALID,0.876953,
2008-11-13, 01:56:05,VALID,1007.8,VALID,0,VALID,95.3905,VALID,0,VALID,23.7153,VALID,90,VALID,1.41289,
2008-11-13, 01:57:05,VALID,1007.8,VALID,0,VALID,95.3829,VALID,0,VALID,23.6745,VALID,81,VALID,1.43477,
2008-11-13, 01:58:05,VALID,1007.82,VALID,0,VALID,95.3905,VALID,0,VALID,23.6745,VALID,103,VALID,1.11289,
2008-11-13, 01:59:05,VALID,1007.82,VALID,0,VALID,95.4134,VALID,0,VALID,23.694,VALID,93,VALID,1.59258,
2008-11-13, 02:00:05,VALID,1007.77,VALID,0,VALID,95.4134,VALID,0,VALID,23.6745,VALID,89,VALID,1.14063,
2008-11-13, 02:01:05,VALID,1007.8,VALID,0,VALID,95.4211,VALID,0,VALID,23.6745,VALID,81,VALID,1.15195,
2008-11-13, 02:02:05,VALID,1007.78,VALID,0,VALID,95.4439,VALID,0,VALID,23.6745,VALID,89,VALID,1.4168,
2008-11-13, 02:03:05,VALID,1007.76,VALID,0,VALID,95.4439,VALID,0,VALID,23.6356,VALID,96,VALID,1.37969,
2008-11-13, 02:04:05,VALID,1007.74,VALID,0,VALID,95.4744,VALID,0,VALID,23.655,VALID,83,VALID,1.40703,
2008-11-13, 02:05:05,VALID,1007.71,VALID,0,VALID,95.4592,VALID,0.105969,VALID,23.6338,VALID,89,VALID,1.5293,
2008-11-13, 02:06:05,VALID,1007.7,VALID,0,VALID,95.4744,VALID,0,VALID,23.6161,VALID,78,VALID,0.849609,
2008-11-13, 02:07:05,VALID,1007.67,VALID,0,VALID,95.4897,VALID,0,VALID,23.655,VALID,84,VALID,1.14609,
2008-11-13, 02:08:05,VALID,1007.68,VALID,0,VALID,95.4744,VALID,0,VALID,23.6356,VALID,80,VALID,1.84258,
2008-11-13, 02:09:05,VALID,1007.62,VALID,0,VALID,95.4821,VALID,0,VALID,23.6161,VALID,115,VALID,1.68438,
2008-11-13, 02:10:05,VALID,1007.62,VALID,0,VALID,95.4897,VALID,0,VALID,23.6161,VALID,97,VALID,1.20508,
2008-11-13, 02:11:05,VALID,1007.6,VALID,0,VALID,95.5049,VALID,0,VALID,23.6356,VALID,86,VALID,1.66094,
2008-11-13, 02:12:05,VALID,1007.61,VALID,0,VALID,95.5202,VALID,0,VALID,23.5966,VALID,79,VALID,1.19492,
2008-11-13, 02:13:05,VALID,1007.6,VALID,0,VALID,95.5431,VALID,0,VALID,23.5966,VALID,75,VALID,1.14141,
2008-11-13, 02:14:05,VALID,1007.58,VALID,0,VALID,95.5202,VALID,0,VALID,23.5966,VALID,88,VALID,1.73867,
2008-11-13, 02:15:05,VALID,1007.57,VALID,0,VALID,95.5507,VALID,0,VALID,23.5789,VALID,75,VALID,1.36641,
2008-11-13, 02:16:05,VALID,1007.54,VALID,0,VALID,95.5812,VALID,0,VALID,23.5966,VALID,89,VALID,0.934766,
2008-11-13, 02:17:05,VALID,1007.54,VALID,0,VALID,95.5812,VALID,0,VALID,23.5966,VALID,88,VALID,0.973437,
2008-11-13, 02:18:05,VALID,1007.54,VALID,0,VALID,95.5812,VALID,0,VALID,23.5966,VALID,55,VALID,1.07539,
2008-11-13, 02:19:05,VALID,1007.54,VALID,0,VALID,95.5812,VALID,0,VALID,23.5771,VALID,86,VALID,1.43438,
2008-11-13, 02:20:05,VALID,1007.51,VALID,0,VALID,95.5964,VALID,0,VALID,23.5771,VALID,66,VALID,1.12031,
2008-11-13, 02:21:05,VALID,1007.51,VALID,0,VALID,95.6193,VALID,0,VALID,23.5966,VALID,119,VALID,1.08633,
2008-11-13, 02:22:05,VALID,1007.47,VALID,0,VALID,95.6117,VALID,0,VALID,23.5771,VALID,98,VALID,0.7375,
2008-11-13, 02:23:05,VALID,1007.43,VALID,0,VALID,95.6269,VALID,0,VALID,23.5966,VALID,98,VALID,0.536719,
2008-11-13, 02:24:05,VALID,1007.43,VALID,0,VALID,95.6346,VALID,0,VALID,23.5966,VALID,95,VALID,0.545703,
2008-11-13, 02:25:05,VALID,1007.39,VALID,0,VALID,95.6498,VALID,0,VALID,23.5966,VALID,118,VALID,0.889844,
2008-11-13, 02:26:05,VALID,1007.37,VALID,0,VALID,95.6422,VALID,0,VALID,23.5771,VALID,82,VALID,1.06875,
2008-11-13, 02:27:05,VALID,1007.39,VALID,0,VALID,95.6651,VALID,0,VALID,23.5966,VALID,92,VALID,0.677344,
2008-11-13, 02:28:05,VALID,1007.37,VALID,0,VALID,95.6498,VALID,0,VALID,23.5771,VALID,76,VALID,1.25195,
2008-11-13, 02:29:05,VALID,1007.36,VALID,0,VALID,95.6651,VALID,0,VALID,23.5771,VALID,60,VALID,0.855078,
2008-11-13, 02:30:05,VALID,1007.35,VALID,0,VALID,95.6574,VALID,0,VALID,23.5771,VALID,30,VALID,0.545703,
2008-11-13, 02:31:05,VALID,1007.38,VALID,0,VALID,95.6727,VALID,0,VALID,23.5771,VALID,3,VALID,0.254297,
2008-11-13, 02:32:05,VALID,1007.37,VALID,0,VALID,95.688,VALID,0,VALID,23.5576,VALID,58,VALID,0.426172,
2008-11-13, 02:33:05,VALID,1007.34,VALID,0,VALID,95.688,VALID,0,VALID,23.5771,VALID,53,VALID,0.401172,
2008-11-13, 02:34:05,VALID,1007.37,VALID,0,VALID,95.688,VALID,0,VALID,23.5363,VALID,68,VALID,0.75625,
2008-11-13, 02:35:05,VALID,1007.35,VALID,0,VALID,95.7185,VALID,0,VALID,23.5558,VALID,81,VALID,0.845703,
2008-11-13, 02:36:05,VALID,1007.36,VALID,0,VALID,95.7108,VALID,0,VALID,23.5576,VALID,77,VALID,0.519922,
2008-11-13, 02:37:05,VALID,1007.35,VALID,0,VALID,95.7185,VALID,0,VALID,23.5363,VALID,73,VALID,1.02266,
2008-11-13, 02:38:05,VALID,1007.36,VALID,0,VALID,95.7185,VALID,0,VALID,23.5576,VALID,66,VALID,0.734766,
2008-11-13, 02:39:05,VALID,1007.37,VALID,0,VALID,95.7108,VALID,0,VALID,23.5966,VALID,105,VALID,0.948047,
2008-11-13, 02:40:05,VALID,1007.36,VALID,0,VALID,95.7337,VALID,0,VALID,23.5771,VALID,89,VALID,0.7875,
2008-11-13, 02:41:05,VALID,1007.34,VALID,0,VALID,95.749,VALID,0,VALID,23.5576,VALID,96,VALID,1.29883,
2008-11-13, 02:42:05,VALID,1007.35,VALID,0,VALID,95.7337,VALID,0,VALID,23.5771,VALID,105,VALID,0.869531,
2008-11-13, 02:43:05,VALID,1007.32,VALID,0,VALID,95.749,VALID,0,VALID,23.5576,VALID,85,VALID,1.18438,
2008-11-13, 02:44:05,VALID,1007.29,VALID,0,VALID,95.7642,VALID,0,VALID,23.5576,VALID,95,VALID,0.933984,
2008-11-13, 02:45:05,VALID,1007.27,VALID,0,VALID,95.7337,VALID,0,VALID,23.5771,VALID,93,VALID,1.15977,
2008-11-13, 02:46:05,VALID,1007.28,VALID,0,VALID,95.7566,VALID,0,VALID,23.5381,VALID,98,VALID,1.49063,
2008-11-13, 02:47:05,VALID,1007.29,VALID,0,VALID,95.7566,VALID,0,VALID,23.5576,VALID,97,VALID,1.20781,
2008-11-13, 02:48:05,VALID,1007.27,VALID,0,VALID,95.749,VALID,0,VALID,23.5771,VALID,107,VALID,0.796484,
2008-11-13, 02:49:05,VALID,1007.3,VALID,0,VALID,95.7566,VALID,0,VALID,23.5576,VALID,81,VALID,0.824609,
2008-11-13, 02:50:05,VALID,1007.32,VALID,0,VALID,95.7718,VALID,0,VALID,23.5789,VALID,86,VALID,0.729688,
2008-11-13, 02:51:05,VALID,1007.33,VALID,0,VALID,95.749,VALID,0,VALID,23.5576,VALID,85,VALID,0.959375,
2008-11-13, 02:52:05,VALID,1007.34,VALID,0,VALID,95.7795,VALID,0,VALID,23.5381,VALID,96,VALID,1.65742,
2008-11-13, 02:53:05,VALID,1007.37,VALID,0,VALID,95.7795,VALID,0.105969,VALID,23.4974,VALID,50,VALID,0.728125,
2008-11-13, 02:54:05,VALID,1007.35,VALID,0,VALID,95.8023,VALID,0.105969,VALID,23.5363,VALID,41,VALID,0.607813,
2008-11-13, 02:55:05,VALID,1007.35,VALID,0,VALID,95.7871,VALID,0.105969,VALID,23.5169,VALID,64,VALID,0.646094,
2008-11-13, 02:56:05,VALID,1007.32,VALID,0,VALID,95.7871,VALID,0.105969,VALID,23.4974,VALID,68,VALID,0.326953,
2008-11-13, 02:57:05,VALID,1007.31,VALID,0,VALID,95.8023,VALID,0.105969,VALID,23.5363,VALID,70,VALID,0.883984,
2008-11-13, 02:58:05,VALID,1007.3,VALID,0,VALID,95.81,VALID,0.105969,VALID,23.4974,VALID,38,VALID,0.927344,
2008-11-13, 02:59:05,VALID,1007.3,VALID,0,VALID,95.8252,VALID,0.105969,VALID,23.4584,VALID,49,VALID,0.617578,
2008-11-13, 03:00:05,VALID,1007.28,VALID,0,VALID,95.8176,VALID,0.105969,VALID,23.4761,VALID,98,VALID,1.47109,
2008-11-13, 03:01:05,VALID,1007.27,VALID,0,VALID,95.8252,VALID,0.105969,VALID,23.4992,VALID,81,VALID,1.07539,
2008-11-13, 03:02:05,VALID,1007.32,VALID,0,VALID,95.8252,VALID,0.105969,VALID,23.4779,VALID,67,VALID,1.09531,
2008-11-13, 03:03:05,VALID,1007.25,VALID,0,VALID,95.8176,VALID,0.105969,VALID,23.4584,VALID,76,VALID,1.13437,
2008-11-13, 03:04:05,VALID,1007.25,VALID,0,VALID,95.8252,VALID,0.105969,VALID,23.4584,VALID,86,VALID,1.18008,
2008-11-13, 03:05:04,VALID,1007.25,VALID,0,VALID,95.8481,VALID,0.105969,VALID,23.4779,VALID,110,VALID,1.06133,
2008-11-13, 03:06:04,VALID,1007.27,VALID,0,VALID,95.8176,VALID,0.105969,VALID,23.4584,VALID,115,VALID,0.932031,
2008-11-13, 03:07:04,VALID,1007.25,VALID,0,VALID,95.8328,VALID,0.105969,VALID,23.4779,VALID,79,VALID,0.957422,
2008-11-13, 03:08:04,VALID,1007.23,VALID,0,VALID,95.8252,VALID,0,VALID,23.4602,VALID,122,VALID,1.02305,
2008-11-13, 03:09:04,VALID,1007.22,VALID,0,VALID,95.8481,VALID,0,VALID,23.4797,VALID,86,VALID,0.774219,
2008-11-13, 03:10:04,VALID,1007.23,VALID,0,VALID,95.8481,VALID,0,VALID,23.4602,VALID,90,VALID,0.469531,
2008-11-13, 03:11:04,VALID,1007.2,VALID,0,VALID,95.8328,VALID,0,VALID,23.4602,VALID,90,VALID,0.550391,
2008-11-13, 03:12:04,VALID,1007.23,VALID,0,VALID,95.8405,VALID,0,VALID,23.4797,VALID,90,VALID,0.0707031,
2008-11-13, 03:13:04,VALID,1007.22,VALID,0,VALID,95.8481,VALID,0,VALID,23.4797,VALID,78,VALID,0.236328,
2008-11-13, 03:14:04,VALID,1007.23,VALID,0,VALID,95.8633,VALID,0,VALID,23.4602,VALID,56,VALID,0.582031,
2008-11-13, 03:15:04,VALID,1007.19,VALID,0,VALID,95.8786,VALID,0,VALID,23.4407,VALID,17,VALID,0.413281,
2008-11-13, 03:16:04,VALID,1007.22,VALID,0,VALID,95.8786,VALID,0,VALID,23.4212,VALID,1,VALID,0.254687,
2008-11-13, 03:17:04,VALID,1007.25,VALID,0,VALID,95.8557,VALID,0,VALID,23.4,VALID,15,VALID,0.107813,
2008-11-13, 03:18:04,VALID,1007.21,VALID,0,VALID,95.8786,VALID,0,VALID,23.4017,VALID,43,VALID,0.470703,
2008-11-13, 03:19:04,VALID,1007.22,VALID,0,VALID,95.871,VALID,0,VALID,23.3823,VALID,34,VALID,0.475781,
2008-11-13, 03:20:04,VALID,1007.2,VALID,0,VALID,95.871,VALID,0,VALID,23.3823,VALID,138,VALID,0.273438,
2008-11-13, 03:21:04,VALID,1007.18,VALID,0,VALID,95.871,VALID,0,VALID,23.3628,VALID,138,VALID,0.0046875,
2008-11-13, 03:22:04,VALID,1007.18,VALID,0,VALID,95.8862,VALID,0,VALID,23.3823,VALID,138,VALID,0.205469,
2008-11-13, 03:23:04,VALID,1007.15,VALID,0,VALID,95.8939,VALID,0,VALID,23.4017,VALID,105,VALID,0.570703,
2008-11-13, 03:24:04,VALID,1007.14,VALID,0,VALID,95.8862,VALID,0,VALID,23.4017,VALID,88,VALID,0.825391,
2008-11-13, 03:25:04,VALID,1007.15,VALID,0,VALID,95.8862,VALID,0,VALID,23.3805,VALID,100,VALID,0.844141,
2008-11-13, 03:26:04,VALID,1007.11,VALID,0,VALID,95.8939,VALID,0,VALID,23.4017,VALID,87,VALID,0.659766,
2008-11-13, 03:27:04,VALID,1007.09,VALID,0,VALID,95.8862,VALID,0,VALID,23.4017,VALID,87,VALID,0.567969,
2008-11-13, 03:28:04,VALID,1007.09,VALID,0,VALID,95.8939,VALID,0,VALID,23.4212,VALID,97,VALID,0.587891,
2008-11-13, 03:29:04,VALID,1007.05,VALID,0,VALID,95.8939,VALID,0,VALID,23.3823,VALID,73,VALID,0.600391,
2008-11-13, 03:30:04,VALID,1007.05,VALID,0,VALID,95.8862,VALID,0,VALID,23.361,VALID,56,VALID,0.672266,
2008-11-13, 03:31:04,VALID,1007.03,VALID,0,VALID,95.8939,VALID,0,VALID,23.3415,VALID,71,VALID,0.468359,
2008-11-13, 03:32:04,VALID,1007.03,VALID,0,VALID,95.9091,VALID,0,VALID,23.3433,VALID,76,VALID,0.595312,
2008-11-13, 03:33:04,VALID,1007.02,VALID,0,VALID,95.932,VALID,0,VALID,23.3628,VALID,76,VALID,0.382031,
2008-11-13, 03:34:04,VALID,1007.01,VALID,0,VALID,95.9091,VALID,0,VALID,23.3433,VALID,102,VALID,0.397656,
2008-11-13, 03:35:04,VALID,1007,VALID,0,VALID,95.9167,VALID,0,VALID,23.3823,VALID,102,VALID,0.328906,
2008-11-13, 03:36:04,VALID,1006.99,VALID,0,VALID,95.9091,VALID,0,VALID,23.3628,VALID,101,VALID,0.145313,
2008-11-13, 03:37:04,VALID,1006.99,VALID,0,VALID,95.9244,VALID,0,VALID,23.3415,VALID,94,VALID,0.4625,
2008-11-13, 03:38:04,VALID,1007,VALID,0,VALID,95.9091,VALID,0,VALID,23.3433,VALID,55,VALID,0.503516,
2008-11-13, 03:39:04,VALID,1007,VALID,0,VALID,95.9167,VALID,0,VALID,23.3238,VALID,77,VALID,0.950391,
2008-11-13, 03:40:04,VALID,1006.99,VALID,0,VALID,95.9167,VALID,0,VALID,23.3043,VALID,75,VALID,0.819922,
2008-11-13, 03:41:04,VALID,1006.98,VALID,0,VALID,95.9396,VALID,0,VALID,23.3043,VALID,61,VALID,0.757422,
2008-11-13, 03:42:04,VALID,1006.97,VALID,0,VALID,95.9244,VALID,0,VALID,23.3043,VALID,71,VALID,0.715234,
2008-11-13, 03:43:04,VALID,1006.99,VALID,0,VALID,95.9244,VALID,0,VALID,23.2848,VALID,86,VALID,0.771484,
2008-11-13, 03:44:04,VALID,1006.98,VALID,0,VALID,95.9396,VALID,0,VALID,23.2848,VALID,84,VALID,0.742578,
2008-11-13, 03:45:04,VALID,1006.97,VALID,0,VALID,95.932,VALID,0,VALID,23.3043,VALID,90,VALID,0.58125,
2008-11-13, 03:46:04,VALID,1006.97,VALID,0,VALID,95.9472,VALID,0,VALID,23.2831,VALID,100,VALID,0.603516,